Regional Weather Roundup
Issued by NWS

Home | Current Version | Previous Version | Text Only | Print | Product List | Glossary On
Versions: 1 2 3 4 5 6 7 8 9 10 11 12 13 14 15 16 17 18 19 20 21 22 23 24 25 26 27 28 29 30 31 32 33 34 35 36 37 38 39 40 41 42 43 44 45 46 47 48 49 50
000
ASUS43 KMKX 260121
RWRWI

WISCONSIN REGIONAL WEATHER ROUNDUP
NATIONAL WEATHER SERVICE MILWAUKEE/SULLIVAN WI
700 PM CST THU DEC 25 2014

NOTE: "FAIR" INDICATES FEW OR NO CLOUDS BELOW 12,000 FEET WITH NO
SIGNIFICANT WEATHER AND/OR OBSTRUCTIONS TO VISIBILITY.

WIZ001-002-006>008-014>016-023>028-260200-
NORTHWEST WISCONSIN

CITY           SKY/WX    TMP DP  RH WIND       PRES   REMARKS
SUPERIOR ARPT  CLOUDY    33  29  86 CALM      29.86R
ASHLAND        CLOUDY    32  28  85 S3        29.86R
HAYWARD        LGT SNOW  31  28  89 CALM      29.85R FOG
SIREN          LGT SNOW  32  31  96 CALM      29.85R
CUMBERLAND     LGT SNOW  30  30 100 CALM      29.84R
RICE LAKE      LGT SNOW  32  31  97 CALM      29.86R
CHETEK         CLOUDY    31  31  96 CALM      29.85R FOG
LADYSMITH      LGT SNOW  32  31  97 CALM      29.86R
EAU CLAIRE     CLOUDY    31  27  85 E5        29.84R WCI  26
MENOMONIE      CLOUDY    32  30  93 E3        29.84S
NEW RICHMOND   CLOUDY    32  32 100 NE3       29.84R FOG
OSCEOLA        LGT SNOW  32  32 100 CALM      29.87R
$$

WIZ003>005-009-010-017-018-260200-
NORTH CENTRAL WISCONSIN

CITY           SKY/WX    TMP DP  RH WIND       PRES   REMARKS
MANITOWISH WTR CLOUDY    29  29 100 CALM      29.83R
ARBOR VITAE    LGT SNOW  32  30  94 CALM      29.83R
WOODRUFF       LGT SNOW  32  30  94 CALM      29.83R
RHINELANDER    LGT SNOW  29  28  96 SW6       29.85R FOG     WCI  23
EAGLE RIVER    CLOUDY    30  30 100 CALM      29.83R
LAND O LAKES   CLOUDY    31  29  93 CALM      29.84R
PHILLIPS       LGT SNOW  29  29  98 CALM      29.83R
TOMAHAWK       LGT SNOW  30  28  94 CALM      29.85R
MEDFORD        CLOUDY    30  28  90 CALM      29.84R
MERRILL        CLOUDY    31  29  93 CALM      29.86R
$$

WIZ029-030-035-036-043>047-260200-
CENTRAL WISCONSIN

CITY           SKY/WX    TMP DP  RH WIND       PRES   REMARKS
WAUSAU         CLOUDY    32  27  81 SE5       29.85R WCI  27
MOSINEE        CLEAR     30  30 100 SE3       29.87R
MARSHFIELD     MOCLDY    32  28  85 E3        29.85R
STEVENS POINT  MOCLDY    27  26  96 E3        29.87S FOG
WAUPACA        MOCLDY    32  29  90 CALM      29.89R FOG
WAUTOMA        PTCLDY    28  28 100 CALM      29.88R
WISC RAPIDS    MOCLDY    30  27  88 E5        29.87S WCI  25
CAMP DOUGLAS   MOCLDY    31  31 100 E5        29.85R WCI  26
$$

WIZ011>013-019>022-031-037>040-048>050-260200-
NORTHEAST WISCONSIN

CITY           SKY/WX    TMP DP  RH WIND       PRES   REMARKS
ANTIGO         CLOUDY    28  27  94 S6        29.86R WCI  22
SHAWANO        CLOUDY    35  30  84 CALM      29.90R
OCONTO         CLOUDY    33  31  90 CALM      29.91R
STURGEON BAY   CLOUDY    34  28  80 CALM      29.93S
GREEN BAY      CLOUDY    34  31  88 CALM      29.91R
MANITOWOC      MOCLDY    36  32  85 S6        29.92R WCI  31
APPLETON       PTCLDY    32  30  93 VRB3      29.90R
CLINTONVILLE   CLOUDY    32  30  93 CALM      29.90R
OSHKOSH        PTCLDY    32  29  88 S5        29.89R WCI  27
$$

WIZ032>034-041-042-053>061-260200-
SOUTHWEST WISCONSIN

CITY           SKY/WX    TMP DP  RH WIND       PRES   REMARKS
LA CROSSE      CLOUDY    36  30  79 SE5       29.84R WCI  32
SPARTA         MOCLDY    30  29  96 CALM      29.86R
VIROQUA        CLOUDY    36  33  89 S9        29.83R WCI  29
BOSCOBEL       MOCLDY    35  30  82 CALM      29.86R
PRAIRIE DU CHI MOCLDY    39  31  72 E3        29.86R
PLATTEVILLE    MOCLDY    38  33  79 CALM      29.87R
$$

WIZ056-057-062-063-064-067-068-260200-
SOUTH CENTRAL WISCONSIN

CITY           SKY/WX    TMP DP  RH WIND       PRES   REMARKS
REEDSBURG      PTCLDY    37  31  80 S5        29.85S WCI  33
BARABOO/DELLS  PTCLDY    36  31  82 S7        29.86R WCI  30
LONE ROCK      MOCLDY    40  30  67 SE6       29.87R
MINERAL POINT  CLOUDY    41  32  70 S10       29.86R
MADISON        MOCLDY    39  32  76 S9        29.88S WCI  33
MIDDLETON      MOCLDY    41  32  70 S8        29.87S
WATERTOWN      PTCLDY    38  34  86 S9        29.89F WCI  31
MONROE         CLOUDY    37  34  87 S15       29.87S WCI  28
JANESVILLE     CLEAR     43  34  70 S14       29.90F
$$

WIZ051-052-058>065-066-070>072-260200-
SOUTHEAST WISCONSIN

CITY           SKY/WX    TMP DP  RH WIND       PRES   REMARKS
MILWAUKEE      MOCLDY    40  31  70 S13       29.94S WCI  32
WAUKESHA       MOCLDY    37  30  75 S12G17    29.93S WCI  30
MILWAUKEE/TIMM CLEAR     39  30  70 S10       29.94S WCI  32
RACINE         CLOUDY    40  31  70 S9        29.96F WCI  34
BURLINGTON     CLOUDY    37  32  81 S9        29.94S WCI  31
KENOSHA        CLOUDY    40  33  76 S9        29.95F WCI  34
FOND DU LAC    CLEAR     36  31  82 S10       29.89R WCI  28
SHEBOYGAN      PTCLDY    33  29  85 S7        29.92R WCI  27
WEST BEND      CLEAR     36  32  87 S7        29.92R WCI  30
JUNEAU         FAIR      36  32  87 S9        29.91R WCI  29
$$

LSZ147-162-260200-
LAKE SUPERIOR

STATION/POSITION TIME  TEMP    WIND        PRES    WAVE
                       AIR SEA DIR/SP/G            HT/PER
                 (UTC) (F)     (DEG/KT/KT) (MB)    (FT/S)
DEVILS ISLAND    0100   34     230/  8/ 11 1011.6R
PORT WING        0000   34     200/  3/  4 1010.8R
SAXON HARBOR     0000   33        CALM     1010.8R
$$

LMZ867-665-643>646-260200-
LAKE MICHIGAN

STATION/POSITION TIME  TEMP    WIND        PRES    WAVE
                       AIR SEA DIR/SP/G            HT/PER
                 (UTC) (F)     (DEG/KT/KT) (MB)    (FT/S)
CHAMBERS ISLAND  0000   35     180/  6/ 13 1012.2S
NORTHPORT PIER   0100   34     170/  1/ 15 1013.2
SISTER BAY       0013          240/ 11/ 14   N/A
ALGOMA LAKESHORE 0015          230/  9/ 10   N/A
KEWAUNEE LAKESHO 0100   36     180/  2/  3 1012.4R
SHEBOYGAN LAKESH 0100   39 37  190/ 16/ 19 1014.1R
PORT WASHINGTON  0000   38     200/  4/  8 1013.9
MILWAUKEE LAKESH 0100   40     190/ 12/ 14   N/A
KENOSHA   LAKESH 0100   40     180/ 10/ 14 1014.2F
$$

TC  - TEMPERATURE IN CELSIUS
VSB - VISIBILITY IN STATUTE MILES
WCI - WIND CHILL INDEX
HX  - HEAT INDEX



USA.gov is the U.S. government's official web portal to all federal, state and local government web resources and services.